Year,Month,Day,Hour,Minute,Value (Times are PST for temperature in C)
2018,04,08,00,00,7.60
2018,04,08,00,01,7.60
2018,04,08,00,02,7.60
2018,04,08,00,03,7.60
2018,04,08,00,04,7.60
2018,04,08,00,05,7.60
2018,04,08,00,06,7.60
2018,04,08,00,07,7.60
2018,04,08,00,08,7.70
2018,04,08,00,09,7.70
2018,04,08,00,10,7.70
2018,04,08,00,11,7.70
2018,04,08,00,12,7.70
2018,04,08,00,13,7.70
2018,04,08,00,14,7.70
2018,04,08,00,15,7.70
2018,04,08,00,16,7.70
2018,04,08,00,17,7.70
2018,04,08,00,18,7.70
2018,04,08,00,19,7.70
2018,04,08,00,20,7.70
2018,04,08,00,21,7.70
2018,04,08,00,22,7.70
2018,04,08,00,23,7.70
2018,04,08,00,24,7.70
2018,04,08,00,25,7.70
2018,04,08,00,26,7.70
2018,04,08,00,27,7.70
2018,04,08,00,28,7.70
2018,04,08,00,29,7.70
2018,04,08,00,30,7.70
2018,04,08,00,31,7.70
2018,04,08,00,32,7.70
2018,04,08,00,33,7.70
2018,04,08,00,34,7.70
2018,04,08,00,35,7.70
2018,04,08,00,36,7.70
2018,04,08,00,37,7.70
2018,04,08,00,38,7.70
2018,04,08,00,39,7.70
2018,04,08,00,40,7.70
2018,04,08,00,41,7.70
2018,04,08,00,42,7.70
2018,04,08,00,43,7.70
2018,04,08,00,44,7.70
2018,04,08,00,45,7.70
2018,04,08,00,46,7.80
2018,04,08,00,47,7.80
2018,04,08,00,48,7.80
2018,04,08,00,49,7.80
2018,04,08,00,50,7.80
2018,04,08,00,51,7.80
2018,04,08,00,52,7.80
2018,04,08,00,53,7.80
2018,04,08,00,54,7.80
2018,04,08,00,55,7.80
2018,04,08,00,56,7.80
2018,04,08,00,57,7.70
2018,04,08,00,58,7.70
2018,04,08,00,59,7.70
2018,04,08,01,00,7.70
2018,04,08,01,01,7.70
2018,04,08,01,02,7.70
2018,04,08,01,03,7.70
2018,04,08,01,04,7.70
2018,04,08,01,05,7.70
2018,04,08,01,06,7.70
2018,04,08,01,07,7.70
2018,04,08,01,08,7.70
2018,04,08,01,09,7.70
2018,04,08,01,10,7.70
2018,04,08,01,11,7.70
2018,04,08,01,12,7.70
2018,04,08,01,13,7.70
2018,04,08,01,14,7.70
2018,04,08,01,15,7.70
2018,04,08,01,16,7.70
2018,04,08,01,17,7.70
2018,04,08,01,18,7.70
2018,04,08,01,19,7.70
2018,04,08,01,20,7.70
2018,04,08,01,21,7.70
2018,04,08,01,22,7.70
2018,04,08,01,23,7.70
2018,04,08,01,24,7.70
2018,04,08,01,25,7.70
2018,04,08,01,26,7.70
2018,04,08,01,27,7.70
2018,04,08,01,28,7.70
2018,04,08,01,29,7.70
2018,04,08,01,30,7.70
2018,04,08,01,31,7.70
2018,04,08,01,32,7.70
2018,04,08,01,33,7.70
2018,04,08,01,34,7.70
2018,04,08,01,35,7.70
2018,04,08,01,36,7.70
2018,04,08,01,37,7.70
2018,04,08,01,38,7.70
2018,04,08,01,39,7.70
2018,04,08,01,40,7.70
2018,04,08,01,41,7.60
2018,04,08,01,42,7.60
2018,04,08,01,43,7.60
2018,04,08,01,44,7.60
2018,04,08,01,45,7.60
2018,04,08,01,46,7.60
2018,04,08,01,47,7.60
2018,04,08,01,48,7.60
2018,04,08,01,49,7.60
2018,04,08,01,50,7.60
2018,04,08,01,51,7.60
2018,04,08,01,52,7.60
2018,04,08,01,53,7.60
2018,04,08,01,54,7.60
2018,04,08,01,55,7.60
2018,04,08,01,56,7.60
2018,04,08,01,57,7.60
2018,04,08,01,58,7.60
2018,04,08,01,59,7.60
2018,04,08,02,00,7.60
2018,04,08,02,01,7.60
2018,04,08,02,02,7.60
2018,04,08,02,03,7.60
2018,04,08,02,04,7.60
2018,04,08,02,05,7.60
2018,04,08,02,06,7.60
2018,04,08,02,07,7.60
2018,04,08,02,08,7.60
2018,04,08,02,09,7.60
2018,04,08,02,10,7.60
2018,04,08,02,11,7.60
2018,04,08,02,12,7.60
2018,04,08,02,13,7.60
2018,04,08,02,14,7.50
2018,04,08,02,15,7.50
2018,04,08,02,16,7.50
2018,04,08,02,17,7.50
2018,04,08,02,18,7.50
2018,04,08,02,19,7.50
2018,04,08,02,20,7.40
2018,04,08,02,21,7.40
2018,04,08,02,22,7.40
2018,04,08,02,23,7.40
2018,04,08,02,24,7.40
2018,04,08,02,25,7.40
2018,04,08,02,26,7.40
2018,04,08,02,27,7.30
2018,04,08,02,28,7.30
2018,04,08,02,29,7.30
2018,04,08,02,30,7.30
2018,04,08,02,31,7.30
2018,04,08,02,32,7.30
2018,04,08,02,33,7.30
2018,04,08,02,34,7.30
2018,04,08,02,35,7.30
2018,04,08,02,36,7.30
2018,04,08,02,37,7.30
2018,04,08,02,38,7.30
2018,04,08,02,39,7.20
2018,04,08,02,40,7.20
2018,04,08,02,41,7.20
2018,04,08,02,42,7.20
2018,04,08,02,43,7.20
2018,04,08,02,44,7.10
2018,04,08,02,45,7.10
2018,04,08,02,46,7.10
2018,04,08,02,47,7.10
2018,04,08,02,48,7.10
2018,04,08,02,49,7.00
2018,04,08,02,50,7.00
2018,04,08,02,51,7.00
2018,04,08,02,52,6.90
2018,04,08,02,53,6.90
2018,04,08,02,54,6.90
2018,04,08,02,55,6.90
2018,04,08,02,56,6.90
2018,04,08,02,57,6.80
2018,04,08,02,58,6.80
2018,04,08,02,59,6.80
2018,04,08,03,00,6.80
2018,04,08,03,01,6.80
2018,04,08,03,02,6.80
2018,04,08,03,03,6.80
2018,04,08,03,04,6.80
2018,04,08,03,05,6.80
2018,04,08,03,06,6.80
2018,04,08,03,07,6.80
2018,04,08,03,08,6.70
2018,04,08,03,09,6.70
2018,04,08,03,10,6.70
2018,04,08,03,11,6.70
2018,04,08,03,12,6.70
2018,04,08,03,13,6.70
2018,04,08,03,14,6.60
2018,04,08,03,15,6.60
2018,04,08,03,16,6.60
2018,04,08,03,17,6.60
2018,04,08,03,18,6.50
2018,04,08,03,19,6.50
2018,04,08,03,20,6.40
2018,04,08,03,21,6.40
2018,04,08,03,22,6.40
2018,04,08,03,23,6.40
2018,04,08,03,24,6.40
2018,04,08,03,25,6.40
2018,04,08,03,26,6.30
2018,04,08,03,27,6.30
2018,04,08,03,28,6.30
2018,04,08,03,29,6.30
2018,04,08,03,30,6.20
2018,04,08,03,31,6.20
2018,04,08,03,32,6.20
2018,04,08,03,33,6.20
2018,04,08,03,34,6.20
2018,04,08,03,35,6.20
2018,04,08,03,36,6.20
2018,04,08,03,37,6.20
2018,04,08,03,38,6.20
2018,04,08,03,39,6.20
2018,04,08,03,40,6.10
2018,04,08,03,41,6.10
2018,04,08,03,42,6.10
2018,04,08,03,43,6.10
2018,04,08,03,44,6.10
2018,04,08,03,45,6.10
2018,04,08,03,46,6.10
2018,04,08,03,47,6.10
2018,04,08,03,48,6.10
2018,04,08,03,49,6.10
2018,04,08,03,50,6.10
2018,04,08,03,51,6.10
2018,04,08,03,52,6.10
2018,04,08,03,53,6.10
2018,04,08,03,54,6.10
2018,04,08,03,55,6.10
2018,04,08,03,56,6.10
2018,04,08,03,57,6.10
2018,04,08,03,58,6.10
2018,04,08,03,59,6.10
2018,04,08,04,00,6.00
2018,04,08,04,01,6.00
2018,04,08,04,02,6.00
2018,04,08,04,03,6.00
2018,04,08,04,04,6.00
2018,04,08,04,05,6.00
2018,04,08,04,06,6.00
2018,04,08,04,07,6.00
2018,04,08,04,08,6.00
2018,04,08,04,09,6.00
2018,04,08,04,10,6.00
2018,04,08,04,11,6.00
2018,04,08,04,12,6.00
2018,04,08,04,13,6.00
2018,04,08,04,14,6.00
2018,04,08,04,15,6.00
2018,04,08,04,16,6.00
2018,04,08,04,17,6.00
2018,04,08,04,18,6.00
2018,04,08,04,19,5.90
2018,04,08,04,20,5.90
2018,04,08,04,21,6.00
2018,04,08,04,22,6.00
2018,04,08,04,23,6.00
2018,04,08,04,24,5.90
2018,04,08,04,25,6.00
2018,04,08,04,26,6.00
2018,04,08,04,27,6.00
2018,04,08,04,28,6.00
2018,04,08,04,29,6.00
2018,04,08,04,30,6.00
2018,04,08,04,31,6.00
2018,04,08,04,32,6.00
2018,04,08,04,33,6.00
2018,04,08,04,34,6.00
2018,04,08,04,35,6.00
2018,04,08,04,36,6.00
2018,04,08,04,37,6.00
2018,04,08,04,38,6.00
2018,04,08,04,39,6.00
2018,04,08,04,40,6.00
2018,04,08,04,41,6.00
2018,04,08,04,42,6.10
2018,04,08,04,43,6.10
2018,04,08,04,44,6.10
2018,04,08,04,45,6.10
2018,04,08,04,46,6.10
2018,04,08,04,47,6.10
2018,04,08,04,48,6.10
2018,04,08,04,49,6.10
2018,04,08,04,50,6.10
2018,04,08,04,51,6.10
2018,04,08,04,52,6.10
2018,04,08,04,53,6.10
2018,04,08,04,54,6.10
2018,04,08,04,55,6.10
2018,04,08,04,56,6.10
2018,04,08,04,57,6.10
2018,04,08,04,58,6.10
2018,04,08,04,59,6.10
2018,04,08,05,00,6.10
2018,04,08,05,01,6.10
2018,04,08,05,02,6.10
2018,04,08,05,03,6.10
2018,04,08,05,04,6.10
2018,04,08,05,05,6.10
2018,04,08,05,06,6.10
2018,04,08,05,07,6.10
2018,04,08,05,08,6.10
2018,04,08,05,09,6.10
2018,04,08,05,10,6.10
2018,04,08,05,11,6.10
2018,04,08,05,12,6.10
2018,04,08,05,13,6.10
2018,04,08,05,14,6.10
2018,04,08,05,15,6.10
2018,04,08,05,16,6.10
2018,04,08,05,17,6.10
2018,04,08,05,18,6.10
2018,04,08,05,19,6.10
2018,04,08,05,20,6.10
2018,04,08,05,21,6.10
2018,04,08,05,22,6.10
2018,04,08,05,23,6.10
2018,04,08,05,24,6.10
2018,04,08,05,25,6.10
2018,04,08,05,26,6.10
2018,04,08,05,27,6.10
2018,04,08,05,28,6.10
2018,04,08,05,29,6.10
2018,04,08,05,30,6.10
2018,04,08,05,31,6.10
2018,04,08,05,32,6.10
2018,04,08,05,33,6.10
2018,04,08,05,34,6.10
2018,04,08,05,35,6.10
2018,04,08,05,36,6.10
2018,04,08,05,37,6.10
2018,04,08,05,38,6.10
2018,04,08,05,39,6.10
2018,04,08,05,40,6.10
2018,04,08,05,41,6.00
2018,04,08,05,42,6.00
2018,04,08,05,43,6.00
2018,04,08,05,44,6.00
2018,04,08,05,45,6.00
2018,04,08,05,46,6.00
2018,04,08,05,47,6.00
2018,04,08,05,48,6.00
2018,04,08,05,49,6.00
2018,04,08,05,50,6.00
2018,04,08,05,51,6.10
2018,04,08,05,52,6.10
2018,04,08,05,53,6.10
2018,04,08,05,54,6.10
2018,04,08,05,55,6.10
2018,04,08,05,56,6.10
2018,04,08,05,57,6.10
2018,04,08,05,58,6.10
2018,04,08,05,59,6.10
2018,04,08,06,00,6.00
2018,04,08,06,01,6.00
2018,04,08,06,02,6.00
2018,04,08,06,03,5.90
2018,04,08,06,04,5.90
2018,04,08,06,05,5.90
2018,04,08,06,06,5.90
2018,04,08,06,07,5.90
2018,04,08,06,08,5.80
2018,04,08,06,09,5.80
2018,04,08,06,10,5.80
2018,04,08,06,11,5.80
2018,04,08,06,12,5.80
2018,04,08,06,13,5.80
2018,04,08,06,14,5.80
2018,04,08,06,15,5.80
2018,04,08,06,16,5.80
2018,04,08,06,17,5.80
2018,04,08,06,18,5.80
2018,04,08,06,19,5.80
2018,04,08,06,20,5.80
2018,04,08,06,21,5.80
2018,04,08,06,22,5.80
2018,04,08,06,23,5.80
2018,04,08,06,24,5.80
2018,04,08,06,25,5.80
2018,04,08,06,26,5.80
2018,04,08,06,27,5.80
2018,04,08,06,28,5.80
2018,04,08,06,29,5.80
2018,04,08,06,30,5.70
2018,04,08,06,31,5.70
2018,04,08,06,32,5.70
2018,04,08,06,33,5.70
2018,04,08,06,34,5.70
2018,04,08,06,35,5.70
2018,04,08,06,36,5.70
2018,04,08,06,37,5.70
2018,04,08,06,38,5.70
2018,04,08,06,39,5.60
2018,04,08,06,40,5.60
2018,04,08,06,41,5.70
2018,04,08,06,42,5.60
2018,04,08,06,43,5.60
2018,04,08,06,44,5.60
2018,04,08,06,45,5.60
2018,04,08,06,46,5.60
2018,04,08,06,47,5.60
2018,04,08,06,48,5.60
2018,04,08,06,49,5.50
2018,04,08,06,50,5.50
2018,04,08,06,51,5.50
2018,04,08,06,52,5.40
2018,04,08,06,53,5.40
2018,04,08,06,54,5.40
2018,04,08,06,55,5.40
2018,04,08,06,56,5.30
2018,04,08,06,57,5.30
2018,04,08,06,58,5.30
2018,04,08,06,59,5.30
2018,04,08,07,00,5.30
2018,04,08,07,01,5.30
2018,04,08,07,02,5.20
2018,04,08,07,03,5.20
2018,04,08,07,04,5.20
2018,04,08,07,05,5.20
2018,04,08,07,06,5.20
2018,04,08,07,07,5.20
2018,04,08,07,08,5.20
2018,04,08,07,09,5.20
2018,04,08,07,10,5.20
2018,04,08,07,11,5.20
2018,04,08,07,12,5.20
2018,04,08,07,13,5.10
2018,04,08,07,14,5.10
2018,04,08,07,15,5.10
2018,04,08,07,16,5.10
2018,04,08,07,17,5.10
2018,04,08,07,18,5.00
2018,04,08,07,19,5.00
2018,04,08,07,20,5.00
2018,04,08,07,21,5.00
2018,04,08,07,22,4.90
2018,04,08,07,23,4.90
2018,04,08,07,24,4.90
2018,04,08,07,25,4.90
2018,04,08,07,26,4.90
2018,04,08,07,27,4.90
2018,04,08,07,28,4.90
2018,04,08,07,29,4.90
2018,04,08,07,30,4.90
2018,04,08,07,31,4.90
2018,04,08,07,32,4.90
2018,04,08,07,33,4.90
2018,04,08,07,34,4.90
2018,04,08,07,35,4.90
2018,04,08,07,36,4.90
2018,04,08,07,37,4.90
2018,04,08,07,38,4.80
2018,04,08,07,39,4.80
2018,04,08,07,40,4.80
2018,04,08,07,41,4.80
2018,04,08,07,42,4.80
2018,04,08,07,43,4.80
2018,04,08,07,44,4.80
2018,04,08,07,45,4.90
2018,04,08,07,46,4.90
2018,04,08,07,47,4.90
2018,04,08,07,48,4.90
2018,04,08,07,49,4.90
2018,04,08,07,50,4.90
2018,04,08,07,51,4.90
2018,04,08,07,52,4.90
2018,04,08,07,53,4.80
2018,04,08,07,54,4.80
2018,04,08,07,55,4.80
2018,04,08,07,56,4.80
2018,04,08,07,57,4.80
2018,04,08,07,58,4.80
2018,04,08,07,59,4.80
2018,04,08,08,00,4.80
2018,04,08,08,01,4.80
2018,04,08,08,02,4.80
2018,04,08,08,03,4.80
2018,04,08,08,04,4.90
2018,04,08,08,05,4.90
2018,04,08,08,06,4.80
2018,04,08,08,07,4.80
2018,04,08,08,08,4.80
2018,04,08,08,09,4.80
2018,04,08,08,10,4.80
2018,04,08,08,11,4.80
2018,04,08,08,12,4.80
2018,04,08,08,13,4.80
2018,04,08,08,14,4.80
2018,04,08,08,15,4.80
2018,04,08,08,16,4.70
2018,04,08,08,17,4.70
2018,04,08,08,18,4.70
2018,04,08,08,19,4.70
2018,04,08,08,20,4.70
2018,04,08,08,21,4.80
2018,04,08,08,22,4.80
2018,04,08,08,23,4.80
2018,04,08,08,24,4.80
2018,04,08,08,25,4.80
2018,04,08,08,26,4.80
2018,04,08,08,27,4.80
2018,04,08,08,28,4.80
2018,04,08,08,29,4.80
2018,04,08,08,30,4.80
2018,04,08,08,31,4.80
2018,04,08,08,32,4.80
2018,04,08,08,33,4.80
2018,04,08,08,34,4.80
2018,04,08,08,35,4.80
2018,04,08,08,36,4.80
2018,04,08,08,37,4.80
2018,04,08,08,38,4.80
2018,04,08,08,39,4.80
2018,04,08,08,40,4.80
2018,04,08,08,41,4.80
2018,04,08,08,42,4.90
2018,04,08,08,43,4.90
2018,04,08,08,44,4.90
2018,04,08,08,45,4.90
2018,04,08,08,46,4.90
2018,04,08,08,47,4.90
2018,04,08,08,48,4.90
2018,04,08,08,49,4.90
2018,04,08,08,50,4.90
2018,04,08,08,51,4.90
2018,04,08,08,52,5.00
2018,04,08,08,53,5.00
2018,04,08,08,54,5.00
2018,04,08,08,55,5.10
2018,04,08,08,56,5.10
2018,04,08,08,57,5.10
2018,04,08,08,58,5.10
2018,04,08,08,59,5.10
2018,04,08,09,00,5.10
2018,04,08,09,01,5.00
2018,04,08,09,02,5.00
2018,04,08,09,03,5.00
2018,04,08,09,04,5.10
2018,04,08,09,05,5.00
2018,04,08,09,06,5.00
2018,04,08,09,07,5.00
2018,04,08,09,08,5.00
2018,04,08,09,09,5.00
2018,04,08,09,10,5.00
2018,04,08,09,11,5.10
2018,04,08,09,12,5.10
2018,04,08,09,13,5.10
2018,04,08,09,14,5.10
2018,04,08,09,15,5.10
2018,04,08,09,16,5.10
2018,04,08,09,17,5.10
2018,04,08,09,18,5.10
2018,04,08,09,19,5.20
2018,04,08,09,20,5.20
2018,04,08,09,21,5.20
2018,04,08,09,22,5.20
2018,04,08,09,23,5.20
2018,04,08,09,24,5.20
2018,04,08,09,25,5.20
2018,04,08,09,26,5.20
2018,04,08,09,27,5.20
2018,04,08,09,28,5.20
2018,04,08,09,29,5.20
2018,04,08,09,30,5.20
2018,04,08,09,31,5.20
2018,04,08,09,32,5.30
2018,04,08,09,33,5.30
2018,04,08,09,34,5.30
2018,04,08,09,35,5.40
2018,04,08,09,36,5.50
2018,04,08,09,37,5.50
2018,04,08,09,38,5.50
2018,04,08,09,39,5.60
2018,04,08,09,40,5.60
2018,04,08,09,41,5.60
2018,04,08,09,42,5.60
2018,04,08,09,43,5.60
2018,04,08,09,44,5.50
2018,04,08,09,45,5.50
2018,04,08,09,46,5.50
2018,04,08,09,47,5.50
2018,04,08,09,48,5.50
2018,04,08,09,49,5.50
2018,04,08,09,50,5.50
2018,04,08,09,51,5.50
2018,04,08,09,52,5.50
2018,04,08,09,53,5.50
2018,04,08,09,54,5.50
2018,04,08,09,55,5.60
2018,04,08,09,56,5.60
2018,04,08,09,57,5.60
2018,04,08,09,58,5.60
2018,04,08,09,59,5.60
2018,04,08,10,00,5.60
2018,04,08,10,01,5.70
2018,04,08,10,02,5.70
2018,04,08,10,03,5.70
2018,04,08,10,04,5.80
2018,04,08,10,05,5.80
2018,04,08,10,06,5.80
2018,04,08,10,07,5.80
2018,04,08,10,08,5.90
2018,04,08,10,09,5.90
2018,04,08,10,10,6.00
2018,04,08,10,11,6.00
2018,04,08,10,12,6.10
2018,04,08,10,13,6.20
2018,04,08,10,14,6.30
2018,04,08,10,15,6.30
2018,04,08,10,16,6.40
2018,04,08,10,17,6.50
2018,04,08,10,18,6.60
2018,04,08,10,19,6.70
2018,04,08,10,20,6.80
2018,04,08,10,21,6.90
2018,04,08,10,22,7.00
2018,04,08,10,23,7.10
2018,04,08,10,24,7.30
2018,04,08,10,25,7.30
2018,04,08,10,26,7.50
2018,04,08,10,27,7.50
2018,04,08,10,28,7.60
2018,04,08,10,29,7.80
2018,04,08,10,30,7.80
2018,04,08,10,31,7.90
2018,04,08,10,32,7.90
2018,04,08,10,33,8.00
2018,04,08,10,34,8.00
2018,04,08,10,35,8.10
2018,04,08,10,36,8.20
2018,04,08,10,37,8.20
2018,04,08,10,38,8.30
2018,04,08,10,39,8.40
2018,04,08,10,40,8.40
2018,04,08,10,41,8.50
2018,04,08,10,42,8.60
2018,04,08,10,43,8.70
2018,04,08,10,44,8.80
2018,04,08,10,45,8.80
2018,04,08,10,46,8.80
2018,04,08,10,47,8.90
2018,04,08,10,48,9.00
2018,04,08,10,49,9.00
2018,04,08,10,50,9.00
2018,04,08,10,51,9.00
2018,04,08,10,52,9.00
2018,04,08,10,53,9.00
2018,04,08,10,54,9.00
2018,04,08,10,55,9.10
2018,04,08,10,56,9.10
2018,04,08,10,57,9.20
2018,04,08,10,58,9.20
2018,04,08,10,59,9.30
2018,04,08,11,00,9.30
2018,04,08,11,01,9.20
2018,04,08,11,02,9.20
2018,04,08,11,03,9.30
2018,04,08,11,04,9.30
2018,04,08,11,05,9.30
2018,04,08,11,06,9.30
2018,04,08,11,07,9.30
2018,04,08,11,08,9.40
2018,04,08,11,09,9.50
2018,04,08,11,10,9.50
2018,04,08,11,11,9.60
2018,04,08,11,12,9.60
2018,04,08,11,13,9.60
2018,04,08,11,14,9.60
2018,04,08,11,15,9.70
2018,04,08,11,16,9.70
2018,04,08,11,17,9.70
2018,04,08,11,18,9.70
2018,04,08,11,19,9.70
2018,04,08,11,20,9.80
2018,04,08,11,21,9.80
2018,04,08,11,22,9.80
2018,04,08,11,23,9.80
2018,04,08,11,24,9.80
2018,04,08,11,25,9.80
2018,04,08,11,26,9.80
2018,04,08,11,27,9.80
2018,04,08,11,28,9.80
2018,04,08,11,29,9.80
2018,04,08,11,30,9.80
2018,04,08,11,31,9.80
2018,04,08,11,32,9.90
2018,04,08,11,33,9.90
2018,04,08,11,34,9.90
2018,04,08,11,35,9.90
2018,04,08,11,36,10.00
2018,04,08,11,37,10.00
2018,04,08,11,38,10.00
2018,04,08,11,39,10.00
2018,04,08,11,40,10.00
2018,04,08,11,41,10.00
2018,04,08,11,42,10.00
2018,04,08,11,43,10.10
2018,04,08,11,44,10.10
2018,04,08,11,45,10.10
2018,04,08,11,46,10.20
2018,04,08,11,47,10.20
2018,04,08,11,48,10.30
2018,04,08,11,49,10.30
2018,04,08,11,50,10.30
2018,04,08,11,51,10.30
2018,04,08,11,52,10.30
2018,04,08,11,53,10.40
2018,04,08,11,54,10.30
2018,04,08,11,55,10.30
2018,04,08,11,56,10.30
2018,04,08,11,57,10.40
2018,04,08,11,58,10.40
2018,04,08,11,59,10.40
2018,04,08,12,00,10.40
2018,04,08,12,01,10.50
2018,04,08,12,02,10.50
2018,04,08,12,03,10.60
2018,04,08,12,04,10.60
2018,04,08,12,05,10.70
2018,04,08,12,06,10.70
2018,04,08,12,07,10.70
2018,04,08,12,08,10.70
2018,04,08,12,09,10.70
2018,04,08,12,10,10.70
2018,04,08,12,11,10.70
2018,04,08,12,12,10.70
2018,04,08,12,13,10.70
2018,04,08,12,14,10.60
2018,04,08,12,15,10.60
2018,04,08,12,16,10.60
2018,04,08,12,17,10.60
2018,04,08,12,18,10.60
2018,04,08,12,19,10.60
2018,04,08,12,20,10.60
2018,04,08,12,21,10.60
2018,04,08,12,22,10.70
2018,04,08,12,23,10.70
2018,04,08,12,24,10.70
2018,04,08,12,25,10.70
2018,04,08,12,26,10.70
2018,04,08,12,27,10.70
2018,04,08,12,28,10.70
2018,04,08,12,29,10.80
2018,04,08,12,30,10.80
2018,04,08,12,31,10.80
2018,04,08,12,32,10.80
2018,04,08,12,33,10.90
2018,04,08,12,34,10.90
2018,04,08,12,35,10.90
2018,04,08,12,36,10.90
2018,04,08,12,37,10.90
2018,04,08,12,38,10.90
2018,04,08,12,39,11.00
2018,04,08,12,40,11.00
2018,04,08,12,41,11.00
2018,04,08,12,42,11.10
2018,04,08,12,43,11.10
2018,04,08,12,44,11.20
2018,04,08,12,45,11.20
2018,04,08,12,46,11.30
2018,04,08,12,47,11.30
2018,04,08,12,48,11.40
2018,04,08,12,49,11.40
2018,04,08,12,50,11.40
2018,04,08,12,51,11.40
2018,04,08,12,52,11.50
2018,04,08,12,53,11.50
2018,04,08,12,54,11.60
2018,04,08,12,55,11.60
2018,04,08,12,56,11.70
2018,04,08,12,57,11.70
2018,04,08,12,58,11.80
2018,04,08,12,59,11.80
2018,04,08,13,00,11.90
2018,04,08,13,01,11.90
2018,04,08,13,02,11.90
2018,04,08,13,03,12.00
2018,04,08,13,04,12.00
2018,04,08,13,05,12.00
2018,04,08,13,06,12.00
2018,04,08,13,07,12.10
2018,04,08,13,08,12.10
2018,04,08,13,09,12.10
2018,04,08,13,10,12.10
2018,04,08,13,11,12.10
2018,04,08,13,12,12.10
2018,04,08,13,13,12.20
2018,04,08,13,14,12.20
2018,04,08,13,15,12.20
2018,04,08,13,16,12.20
2018,04,08,13,17,12.30
2018,04,08,13,18,12.30
2018,04,08,13,19,12.30
2018,04,08,13,20,12.30
2018,04,08,13,21,12.30
2018,04,08,13,22,12.30
2018,04,08,13,23,12.40
2018,04,08,13,24,12.40
2018,04,08,13,25,12.40
2018,04,08,13,26,12.50
2018,04,08,13,27,12.50
2018,04,08,13,28,12.50
2018,04,08,13,29,12.60
2018,04,08,13,30,12.60
2018,04,08,13,31,12.60
2018,04,08,13,32,12.70
2018,04,08,13,33,12.70
2018,04,08,13,34,12.70
2018,04,08,13,35,12.70
2018,04,08,13,36,12.80
2018,04,08,13,37,12.80
2018,04,08,13,38,12.80
2018,04,08,13,39,12.80
2018,04,08,13,40,12.80
2018,04,08,13,41,12.80
2018,04,08,13,42,12.80
2018,04,08,13,43,12.80
2018,04,08,13,44,12.90
2018,04,08,13,45,13.00
2018,04,08,13,46,12.90
2018,04,08,13,47,12.90
2018,04,08,13,48,13.00
2018,04,08,13,49,13.00
2018,04,08,13,50,13.10
2018,04,08,13,51,13.20
2018,04,08,13,52,13.30
2018,04,08,13,53,13.30
2018,04,08,13,54,13.30
2018,04,08,13,55,13.40
2018,04,08,13,56,13.50
2018,04,08,13,57,13.50
2018,04,08,13,58,13.60
2018,04,08,13,59,13.70
2018,04,08,14,00,13.70
2018,04,08,14,01,13.80
2018,04,08,14,02,13.80
2018,04,08,14,03,13.80
2018,04,08,14,04,13.80
2018,04,08,14,05,13.80
2018,04,08,14,06,13.80
2018,04,08,14,07,13.80
2018,04,08,14,08,13.90
2018,04,08,14,09,13.90
2018,04,08,14,10,13.90
2018,04,08,14,11,13.90
2018,04,08,14,12,13.90
2018,04,08,14,13,13.90
2018,04,08,14,14,14.00
2018,04,08,14,15,14.00
2018,04,08,14,16,14.00
2018,04,08,14,17,13.90
2018,04,08,14,18,13.90
2018,04,08,14,19,13.90
2018,04,08,14,20,13.90
2018,04,08,14,21,13.90
2018,04,08,14,22,13.90
2018,04,08,14,23,13.80
2018,04,08,14,24,13.80
2018,04,08,14,25,13.90
2018,04,08,14,26,13.90
2018,04,08,14,27,13.80
2018,04,08,14,28,13.80
2018,04,08,14,29,13.80
2018,04,08,14,30,13.90
2018,04,08,14,31,13.90
2018,04,08,14,32,13.90
2018,04,08,14,33,13.90
2018,04,08,14,34,13.80
2018,04,08,14,35,13.80
2018,04,08,14,36,13.80
2018,04,08,14,37,13.80
2018,04,08,14,38,13.70
2018,04,08,14,39,13.70
2018,04,08,14,40,13.70
2018,04,08,14,41,13.70
2018,04,08,14,42,13.80
2018,04,08,14,43,13.80
2018,04,08,14,44,13.80
2018,04,08,14,45,13.80
2018,04,08,14,46,13.80
2018,04,08,14,47,13.70
2018,04,08,14,48,13.70
2018,04,08,14,49,13.70
2018,04,08,14,50,13.70
2018,04,08,14,51,13.60
2018,04,08,14,52,13.60
2018,04,08,14,53,13.40
2018,04,08,14,54,13.30
2018,04,08,14,55,13.20
2018,04,08,14,56,13.30
2018,04,08,14,57,13.40
2018,04,08,14,58,13.50
2018,04,08,14,59,13.50
2018,04,08,15,00,13.40
2018,04,08,15,01,13.40
2018,04,08,15,02,13.40
2018,04,08,15,03,13.40
2018,04,08,15,04,13.60
2018,04,08,15,05,13.90
2018,04,08,15,06,14.00
2018,04,08,15,07,14.10
2018,04,08,15,08,14.20
2018,04,08,15,09,14.20
2018,04,08,15,10,14.40
2018,04,08,15,11,14.50
2018,04,08,15,12,14.60
2018,04,08,15,13,14.70
2018,04,08,15,14,14.80
2018,04,08,15,15,14.80
2018,04,08,15,16,14.90
2018,04,08,15,17,14.90
2018,04,08,15,18,15.00
2018,04,08,15,19,15.10
2018,04,08,15,20,15.10
2018,04,08,15,21,15.10
2018,04,08,15,22,15.10
2018,04,08,15,23,15.00
2018,04,08,15,24,14.90
2018,04,08,15,25,14.90
2018,04,08,15,26,14.90
2018,04,08,15,27,14.90
2018,04,08,15,28,14.80
2018,04,08,15,29,14.80
2018,04,08,15,30,14.80
2018,04,08,15,31,14.80
2018,04,08,15,32,14.80
2018,04,08,15,33,14.80
2018,04,08,15,34,14.80
2018,04,08,15,35,14.80
2018,04,08,15,36,14.80
2018,04,08,15,37,14.70
2018,04,08,15,38,14.70
2018,04,08,15,39,14.70
2018,04,08,15,40,14.60
2018,04,08,15,41,14.60
2018,04,08,15,42,14.50
2018,04,08,15,43,14.50
2018,04,08,15,44,14.40
2018,04,08,15,45,14.30
2018,04,08,15,46,14.30
2018,04,08,15,47,14.40
2018,04,08,15,48,14.40
2018,04,08,15,49,14.40
2018,04,08,15,50,14.40
2018,04,08,15,51,14.40
2018,04,08,15,52,14.40
2018,04,08,15,53,14.40
2018,04,08,15,54,14.40
2018,04,08,15,55,14.40
2018,04,08,15,56,14.40
2018,04,08,15,57,14.40
2018,04,08,15,58,14.40
2018,04,08,15,59,14.40
2018,04,08,16,00,14.30
2018,04,08,16,01,14.30
2018,04,08,16,02,14.30
2018,04,08,16,03,14.20
2018,04,08,16,04,14.20
2018,04,08,16,05,14.10
2018,04,08,16,06,14.10
2018,04,08,16,07,14.10
2018,04,08,16,08,14.10
2018,04,08,16,09,14.00
2018,04,08,16,10,14.00
2018,04,08,16,11,13.90
2018,04,08,16,12,13.90
2018,04,08,16,13,13.90
2018,04,08,16,14,13.90
2018,04,08,16,15,13.90
2018,04,08,16,16,13.90
2018,04,08,16,17,13.90
2018,04,08,16,18,13.90
2018,04,08,16,19,13.80
2018,04,08,16,20,13.80
2018,04,08,16,21,13.80
2018,04,08,16,22,13.80
2018,04,08,16,23,13.70
2018,04,08,16,24,13.70
2018,04,08,16,25,13.60
2018,04,08,16,26,13.60
2018,04,08,16,27,13.60
2018,04,08,16,28,13.50
2018,04,08,16,29,13.50
2018,04,08,16,30,13.40
2018,04,08,16,31,13.30
2018,04,08,16,32,13.30
2018,04,08,16,33,13.30
2018,04,08,16,34,13.20
2018,04,08,16,35,13.20
2018,04,08,16,36,13.10
2018,04,08,16,37,13.00
2018,04,08,16,38,12.90
2018,04,08,16,39,12.80
2018,04,08,16,40,12.70
2018,04,08,16,41,12.70
2018,04,08,16,42,12.70
2018,04,08,16,43,12.60
2018,04,08,16,44,12.60
2018,04,08,16,45,12.60
2018,04,08,16,46,12.60
2018,04,08,16,47,12.60
2018,04,08,16,48,12.60
2018,04,08,16,49,12.60
2018,04,08,16,50,12.60
2018,04,08,16,51,12.50
2018,04,08,16,52,12.50
2018,04,08,16,53,12.40
2018,04,08,16,54,12.40
2018,04,08,16,55,12.30
2018,04,08,16,56,12.30
2018,04,08,16,57,12.20
2018,04,08,16,58,12.10
2018,04,08,16,59,12.10
2018,04,08,17,00,12.10
2018,04,08,17,01,12.10
2018,04,08,17,02,12.00
2018,04,08,17,03,11.90
2018,04,08,17,04,11.90
2018,04,08,17,05,11.80
2018,04,08,17,06,11.70
2018,04,08,17,07,11.70
2018,04,08,17,08,11.70
2018,04,08,17,09,11.60
2018,04,08,17,10,11.60
2018,04,08,17,11,11.50
2018,04,08,17,12,11.50
2018,04,08,17,13,11.40
2018,04,08,17,14,11.40
2018,04,08,17,15,11.40
2018,04,08,17,16,11.40
2018,04,08,17,17,11.30
2018,04,08,17,18,11.30
2018,04,08,17,19,11.30
2018,04,08,17,20,11.30
2018,04,08,17,21,11.20
2018,04,08,17,22,11.20
2018,04,08,17,23,11.20
2018,04,08,17,24,11.20
2018,04,08,17,25,11.20
2018,04,08,17,26,11.20
2018,04,08,17,27,11.20
2018,04,08,17,28,11.20
2018,04,08,17,29,11.20
2018,04,08,17,30,11.20
2018,04,08,17,31,11.20
2018,04,08,17,32,11.10
2018,04,08,17,33,11.10
2018,04,08,17,34,11.10
2018,04,08,17,35,11.10
2018,04,08,17,36,11.10
2018,04,08,17,37,11.00
2018,04,08,17,38,11.00
2018,04,08,17,39,11.00
2018,04,08,17,40,11.00
2018,04,08,17,41,11.00
2018,04,08,17,42,11.00
2018,04,08,17,43,11.10
2018,04,08,17,44,11.10
2018,04,08,17,45,11.10
2018,04,08,17,46,11.10
2018,04,08,17,47,11.10
2018,04,08,17,48,11.10
2018,04,08,17,49,11.00